York, PA

3:12 PM EDT on March 29, 2017 (GMT -0400)
York

Weather History for KTHV - October, 2011

Change the Weather History Date:

Wednesday, October 5, 2011

  Actual Average Record
Temperature  
Mean Temperature 58 °F -  
Max Temperature 71 °F 0 °F 87 °F (2013)
Min Temperature 44 °F - 35 °F (1999)
Degree Days  
Heating Degree Days 8    
Growing Degree Days 8 (Base 50)    
Moisture  
Dew Point 45 °F    
Average Humidity 69    
Maximum Humidity 96    
Minimum Humidity 34    
Precipitation  
Precipitation 0.00 in - - ()
Sea Level Pressure  
Sea Level Pressure 30.20 in    
Wind  
Wind Speed 4 mph (NW)    
Max Wind Speed 14 mph    
Max Gust Speed 17 mph    
Visibility 10 miles    
Events      
Averages and records for this station are not official NWS values.
T = Trace of Precipitation, MM = Missing Value Source: NWS Daily Summary

Daily Weather History Graph

Daily Weather History Graph

Search for Another Location

Airport or City:

Trip Planner

Search our weather history database for the weather conditions in past years. The results will help you decide how hot, cold, wet, or windy it might be!

Date:

Astronomy

Oct. 05, 2011 Rise Set
Actual Time 7:07 AM EDT 6:43 PM EDT
Civil Twilight 6:40 AM EDT 7:10 PM EDT
Nautical Twilight 6:09 AM EDT 7:42 PM EDT
Astronomical Twilight 5:37 AM EDT 8:13 PM EDT
Moon 3:22 PM EDT (10/5) 12:52 AM EDT (10/5)
Length of Visible Light 12h 30m
Length of Day
11h 36m
Waxing Gibbous, 66% of the Moon is Illuminated
Oct 5
Waxing Gibbous
Oct 11
Full
Oct 19
Last Quarter
Oct 26
New
Nov 2
First Quarter

Hourly Weather History & Observations

Time (EDT) Temp. Dew Point Humidity Pressure Visibility Wind Dir Wind Speed Gust Speed Precip Events Conditions
12:53 AM 46.9 °F 45.0 °F 93% 30.14 in 10.0 mi Calm Calm - N/A   Clear
1:53 AM 51.1 °F 48.0 °F 89% 30.16 in 10.0 mi WNW 3.5 mph - N/A   Clear
2:53 AM 48.0 °F 46.0 °F 93% 30.16 in 10.0 mi Calm Calm - N/A   Clear
4:53 AM 44.1 °F 43.0 °F 96% 30.17 in 10.0 mi Calm Calm - N/A   Clear
5:53 AM 44.1 °F 42.1 °F 93% 30.18 in 10.0 mi Calm Calm - N/A   Clear
6:53 AM 46.9 °F 44.1 °F 90% 30.19 in 10.0 mi WNW 3.5 mph - N/A   Clear
7:53 AM 53.1 °F 46.9 °F 80% 30.20 in 10.0 mi WNW 4.6 mph - N/A   Clear
8:53 AM 57.0 °F 48.9 °F 74% 30.20 in 10.0 mi West 6.9 mph - N/A   Clear
9:53 AM 62.1 °F 48.9 °F 62% 30.21 in 10.0 mi WNW 9.2 mph - N/A   Clear
10:53 AM 66.0 °F 45.0 °F 47% 30.21 in 10.0 mi NW 9.2 mph - N/A   Clear
11:53 AM 66.9 °F 42.1 °F 40% 30.21 in 10.0 mi NW 10.4 mph 17.3 mph N/A   Clear
12:53 PM 69.1 °F 39.9 °F 35% 30.19 in 10.0 mi NNW 13.8 mph - N/A   Clear
1:53 PM 70.0 °F 42.1 °F 36% 30.18 in 10.0 mi NW 12.7 mph 17.3 mph N/A   Clear
3:53 PM 71.1 °F 41.0 °F 34% 30.17 in 10.0 mi NW 11.5 mph 16.1 mph N/A   Clear
4:53 PM 71.1 °F 45.0 °F 39% 30.17 in 10.0 mi North 8.1 mph - N/A   Clear
5:53 PM 69.1 °F 46.0 °F 44% 30.17 in 10.0 mi NNW 5.8 mph - N/A   Clear
7:53 PM 53.1 °F 48.0 °F 83% 30.20 in 10.0 mi Calm Calm - N/A   Clear
8:53 PM 52.0 °F 48.9 °F 89% 30.22 in 10.0 mi Calm Calm - N/A   Clear
10:53 PM 48.9 °F 46.0 °F 90% 30.28 in 10.0 mi Calm Calm - N/A   Clear
11:53 PM 53.1 °F 46.0 °F 77% 30.31 in 10.0 mi Calm Calm - N/A   Clear